Zurück zum Katalog

STARLINK-37422

AktivKommunikationVLEO
NORAD 69191·PAYLOAD·🇺🇸 United States

Gestartet May 25, 2026 von Cape Canaveral Space Force Station

Loading…

Nächste Überflüge (nächste 24 Stunden)

TLE

AktuellSource: CelesTrak SupGP

Epoche: Sep 15, 2026, 02:56 UTC

1 69191C 26114K   26258.12270833  .00043030  00000+0  12714-2 0  2583
2 69191  53.1561 139.0111 0001063  72.1032 101.9279 15.34366493    14

Verfolge STARLINK-37422 in Echtzeit mit AllMySat

Download on the App Store